Location: Unspecified
(35.6961°N, 0.0000°E)
Time: 03:12:28
(UTC+00:00)

Vanguard 2 Rocket - Pass Details

Date: 02 June 2019
Orbit: 554 x 3326 km, 32.9° (Epoch: 16 June)

Event Time Altitude Azimuth Distance (km) Brightness Sun altitude
Rises 08:37:13 0° 284° (WNW) 7,046 11.0 44.6°
Reaches altitude 10° 08:42:36 10° 280° (W) 5,745 10.6 45.7°
Maximum altitude 08:57:38 46° 214° (SW) 2,573 9.5 48.7°
Drops below altitude 10° 09:06:37 10° 144° (SE) 3,517 10.5 50.5°
Sets 09:09:07 0° 137° (SE) 4,194 10.7 51.0°
